FIN79U EFHK-RJGG

Flight info

Callsign FIN79U
Flight time N/A
Altitude 34000
Route KOIVU Y123 LARTI DCT ORTAX DCT SOKVA DCT ROLAV/N0490F360 DCT BOKSU DCT TOXAR DCT ROBTU/N0486F350 DCT KENIN DCT DOKUD/N0481F370 DCT URELA DCT REVDA DCT UDROS UM859 KARDE UN644 ROLIN N644 LAGAS M747 SUBUT T916 BALUN/K0896F370 T916 EFMIF/K0891F390 T916 PIGAL M610 RULAD/K0885S1190 A343 POSOT B215 FKG W188 LIKMI W270 POPIB/K0898S1250 W270 DKO W69 HUR B339 LADIX W34 VAPGU W100 ORAVA W201 UNSEK A326 DONVO G597 AGAVO/N0481F410 Y644 EGOBA Y697 LANAT Y51 SAMON Y511 CHESS
Aircraft A359/H-SDE2E3GHIJ3J4J5LM1ORWXY/LB1D1

Departure

Time N/A
Airport Helsinki Vantaa Airport (EFHK)

Arrival

Time 2026-04-27 21:49
Airport Chubu Centrair International Airport (RJGG)
Time Latitude Longitude Altitude Speed Heading
2026-04-27 18:18 42.23390 99.42254 39212 ft 510 kts 94°
2026-04-27 18:19 42.22811 99.51804 39212 ft 510 kts 94°
2026-04-27 18:19 42.22223 99.61346 39209 ft 512 kts 95°
2026-04-27 18:20 42.21627 99.70939 39216 ft 513 kts 95°
2026-04-27 18:20 42.21028 99.80517 39222 ft 513 kts 95°
2026-04-27 18:21 42.20416 99.90123 39217 ft 514 kts 95°
2026-04-27 18:21 42.19796 99.99730 39225 ft 514 kts 95°
2026-04-27 18:22 42.19166 100.09338 39223 ft 515 kts 95°
2026-04-27 18:22 42.18527 100.18954 39219 ft 515 kts 95°
2026-04-27 18:23 42.17880 100.28578 39221 ft 515 kts 95°
2026-04-27 18:23 42.17224 100.38188 39230 ft 515 kts 95°
2026-04-27 18:24 42.16563 100.47791 39230 ft 514 kts 95°
2026-04-27 18:24 42.15895 100.57394 39230 ft 514 kts 95°
2026-04-27 18:25 42.15219 100.66981 39229 ft 515 kts 95°
2026-04-27 18:25 42.14531 100.76565 39229 ft 514 kts 95°
2026-04-27 18:26 42.13838 100.86166 39230 ft 514 kts 95°
2026-04-27 18:26 42.13135 100.95775 39228 ft 515 kts 95°
2026-04-27 18:27 42.12075 101.05328 39302 ft 518 kts 106°
2026-04-27 18:27 42.11022 101.09959 39502 ft 517 kts 108°
2026-04-27 18:27 42.09883 101.14553 39655 ft 517 kts 109°
2026-04-27 18:28 42.08698 101.19125 39763 ft 518 kts 110°
2026-04-27 18:28 42.07488 101.23695 39862 ft 519 kts 110°
2026-04-27 18:28 42.06270 101.28266 39985 ft 520 kts 110°
2026-04-27 18:28 42.05065 101.32789 40134 ft 519 kts 110°
2026-04-27 18:29 42.03849 101.37366 40264 ft 520 kts 110°
2026-04-27 18:29 42.02634 101.41946 40326 ft 521 kts 110°
2026-04-27 18:29 42.00194 101.51147 40533 ft 523 kts 110°
2026-04-27 18:30 41.97741 101.60379 40639 ft 526 kts 110°
2026-04-27 18:30 41.96507 101.65009 40740 ft 526 kts 110°
2026-04-27 18:30 41.95273 101.69630 40878 ft 526 kts 110°
2026-04-27 18:31 41.94036 101.74253 40986 ft 526 kts 110°
2026-04-27 18:31 41.92798 101.78871 41105 ft 525 kts 110°
2026-04-27 18:31 41.91556 101.83494 41227 ft 526 kts 110°
2026-04-27 18:31 41.90314 101.88107 41313 ft 526 kts 110°
2026-04-27 18:32 41.87818 101.97356 41358 ft 527 kts 110°
2026-04-27 18:32 41.85315 102.06595 41356 ft 527 kts 110°
2026-04-27 18:33 41.82803 102.15831 41357 ft 528 kts 110°
2026-04-27 18:33 41.80280 102.25075 41356 ft 528 kts 110°
2026-04-27 18:34 41.77748 102.34315 41356 ft 528 kts 111°
2026-04-27 18:34 41.75208 102.43552 41359 ft 529 kts 111°
2026-04-27 18:35 41.72659 102.52788 41358 ft 529 kts 111°
2026-04-27 18:35 41.70097 102.62036 41354 ft 530 kts 111°
2026-04-27 18:36 41.67959 102.69725 41358 ft 531 kts 111°
2026-04-27 18:36 41.65381 102.78994 41356 ft 532 kts 111°
2026-04-27 18:37 41.62786 102.88261 41357 ft 533 kts 111°
2026-04-27 18:37 41.60176 102.97547 41355 ft 534 kts 111°
2026-04-27 18:38 41.57562 103.06823 41357 ft 534 kts 111°
2026-04-27 18:38 41.54932 103.16109 41359 ft 535 kts 111°
2026-04-27 18:39 41.52292 103.25398 41358 ft 536 kts 111°
2026-04-27 18:39 41.49641 103.34693 41357 ft 536 kts 111°
2026-04-27 18:40 41.46980 103.43992 41359 ft 537 kts 111°
2026-04-27 18:40 41.44310 103.53287 41360 ft 537 kts 111°
2026-04-27 18:41 41.41628 103.62591 41363 ft 538 kts 111°
2026-04-27 18:41 41.38957 103.71823 41381 ft 538 kts 111°
2026-04-27 18:42 41.36700 103.79601 41377 ft 538 kts 111°
2026-04-27 18:42 41.33556 103.90393 41380 ft 538 kts 112°
2026-04-27 18:43 41.30841 103.99678 41377 ft 538 kts 112°
2026-04-27 18:43 41.28121 104.08945 41390 ft 539 kts 112°
2026-04-27 18:44 41.25379 104.18254 41390 ft 541 kts 112°
2026-04-27 18:44 41.22627 104.27564 41389 ft 541 kts 112°
2026-04-27 18:45 41.19866 104.36871 41373 ft 542 kts 112°
2026-04-27 18:45 41.17095 104.46183 41372 ft 543 kts 112°
2026-04-27 18:46 41.14313 104.55492 41372 ft 543 kts 112°
2026-04-27 18:46 41.11522 104.64802 41370 ft 543 kts 112°
2026-04-27 18:47 41.08698 104.74105 41381 ft 544 kts 114°
2026-04-27 18:47 41.05618 104.83257 41375 ft 544 kts 116°
2026-04-27 18:48 41.02460 104.92369 41380 ft 544 kts 116°
2026-04-27 18:48 40.99327 105.01497 41367 ft 545 kts 116°
2026-04-27 18:49 40.96209 105.10647 41322 ft 546 kts 116°
2026-04-27 18:49 40.93088 105.19801 41322 ft 546 kts 116°
2026-04-27 18:50 40.89956 105.28956 41324 ft 547 kts 116°
2026-04-27 18:50 40.86811 105.38113 41324 ft 547 kts 116°
2026-04-27 18:51 40.83655 105.47271 41317 ft 548 kts 116°
2026-04-27 18:51 40.80489 105.56429 41319 ft 549 kts 116°
2026-04-27 18:52 40.77328 105.65542 41321 ft 550 kts 116°
2026-04-27 18:53 40.72516 105.79358 41322 ft 551 kts 117°
2026-04-27 18:53 40.69330 105.88469 41318 ft 551 kts 117°
2026-04-27 18:54 40.66116 105.97634 41319 ft 551 kts 117°
2026-04-27 18:54 40.62889 106.06802 41319 ft 552 kts 117°
2026-04-27 18:55 40.59649 106.15977 41318 ft 553 kts 117°
2026-04-27 18:55 40.56397 106.25161 41318 ft 554 kts 117°
2026-04-27 18:56 40.53136 106.34336 41323 ft 554 kts 117°
2026-04-27 18:56 40.49868 106.43506 41319 ft 554 kts 117°
2026-04-27 18:57 40.46592 106.52668 41319 ft 554 kts 117°
2026-04-27 18:57 40.43308 106.61821 41319 ft 554 kts 117°
2026-04-27 18:58 40.40015 106.70972 41319 ft 554 kts 117°
2026-04-27 18:58 40.36715 106.80113 41320 ft 555 kts 117°
2026-04-27 18:59 40.33448 106.89279 41334 ft 556 kts 114°
2026-04-27 18:59 40.32258 106.94108 41339 ft 558 kts 103°
2026-04-27 18:59 40.31705 106.99127 41339 ft 556 kts 91°
2026-04-27 19:00 40.32333 107.09176 41338 ft 554 kts 79°
2026-04-27 19:00 40.33577 107.19131 41339 ft 554 kts 77°
2026-04-27 19:01 40.34882 107.29085 41339 ft 555 kts 77°
2026-04-27 19:01 40.36140 107.39075 41338 ft 556 kts 78°
2026-04-27 19:02 40.37361 107.49085 41339 ft 556 kts 78°
2026-04-27 19:02 40.38566 107.59105 41339 ft 557 kts 78°
2026-04-27 19:03 40.39759 107.69086 41340 ft 558 kts 78°
2026-04-27 19:03 40.40954 107.79155 41338 ft 559 kts 78°
2026-04-27 19:04 40.42142 107.89232 41338 ft 559 kts 78°
2026-04-27 19:04 40.43325 107.99327 41338 ft 560 kts 78°
2026-04-27 19:05 40.44498 108.09431 41338 ft 560 kts 78°
2026-04-27 19:05 40.45655 108.19540 41339 ft 560 kts 78°
2026-04-27 19:06 40.46805 108.29654 41339 ft 559 kts 79°
2026-04-27 19:06 40.47945 108.39747 41338 ft 559 kts 78°
2026-04-27 19:07 40.49078 108.49848 41338 ft 558 kts 78°
2026-04-27 19:07 40.50200 108.59936 41338 ft 558 kts 79°
2026-04-27 19:08 40.51312 108.70017 41339 ft 557 kts 79°
2026-04-27 19:08 40.52414 108.80090 41338 ft 557 kts 79°
2026-04-27 19:09 40.53507 108.90166 41319 ft 556 kts 79°
2026-04-27 19:09 40.54583 109.00169 41322 ft 556 kts 79°
2026-04-27 19:10 40.55658 109.10241 41327 ft 557 kts 79°
2026-04-27 19:10 40.56725 109.20327 41330 ft 557 kts 79°
2026-04-27 19:11 40.57783 109.30411 41328 ft 557 kts 79°
2026-04-27 19:11 40.58833 109.40513 41330 ft 558 kts 79°
2026-04-27 19:12 40.59877 109.50637 41329 ft 559 kts 79°
2026-04-27 19:12 40.60913 109.60775 41332 ft 559 kts 79°
2026-04-27 19:13 40.61941 109.70931 41338 ft 560 kts 79°
2026-04-27 19:13 40.62961 109.81089 41339 ft 560 kts 79°
2026-04-27 19:14 40.63973 109.91266 41338 ft 561 kts 79°
2026-04-27 19:14 40.64615 110.01511 41338 ft 564 kts 87°
2026-04-27 19:15 40.64656 110.11841 41347 ft 565 kts 88°
2026-04-27 19:15 40.64587 110.22197 41347 ft 565 kts 89°
2026-04-27 19:16 40.64501 110.32538 41349 ft 565 kts 89°
2026-04-27 19:16 40.64419 110.42806 41346 ft 565 kts 88°
2026-04-27 19:17 40.64339 110.53134 41350 ft 564 kts 88°
2026-04-27 19:17 40.64250 110.63449 41356 ft 563 kts 89°
2026-04-27 19:18 40.64151 110.73764 41361 ft 563 kts 89°
2026-04-27 19:18 40.64042 110.84063 41359 ft 563 kts 89°
2026-04-27 19:19 40.63925 110.94354 41354 ft 562 kts 89°
2026-04-27 19:19 40.63799 111.04645 41355 ft 562 kts 89°
2026-04-27 19:20 40.63665 111.14923 41354 ft 562 kts 89°
2026-04-27 19:20 40.63526 111.25218 41363 ft 562 kts 89°
2026-04-27 19:21 40.63372 111.35499 41371 ft 562 kts 89°
2026-04-27 19:21 40.63206 111.45793 41362 ft 563 kts 89°
2026-04-27 19:22 40.63033 111.56096 41362 ft 563 kts 89°
2026-04-27 19:22 40.62852 111.66402 41368 ft 564 kts 89°
2026-04-27 19:23 40.62662 111.76729 41362 ft 564 kts 89°
2026-04-27 19:23 40.62114 111.87024 41366 ft 566 kts 101°
2026-04-27 19:24 40.60018 111.96999 41368 ft 566 kts 109°
2026-04-27 19:24 40.57863 112.05137 41369 ft 567 kts 111°
2026-04-27 19:25 40.55172 112.14887 41363 ft 567 kts 111°
2026-04-27 19:25 40.52081 112.26242 41357 ft 568 kts 110°
2026-04-27 19:26 40.49447 112.36026 41357 ft 568 kts 110°
2026-04-27 19:26 40.47244 112.44211 41355 ft 567 kts 110°
2026-04-27 19:27 40.44604 112.53977 41351 ft 567 kts 110°
2026-04-27 19:27 40.41959 112.63717 41339 ft 567 kts 110°
2026-04-27 19:28 40.39299 112.73466 41339 ft 567 kts 110°
2026-04-27 19:28 40.36653 112.83131 41329 ft 567 kts 111°
2026-04-27 19:29 40.33985 112.92838 41328 ft 566 kts 111°
2026-04-27 19:29 40.31309 113.02536 41322 ft 566 kts 111°
2026-04-27 19:30 40.28624 113.12229 41315 ft 566 kts 111°
2026-04-27 19:30 40.25933 113.21911 41309 ft 566 kts 111°
2026-04-27 19:31 40.23231 113.31591 41305 ft 566 kts 111°
2026-04-27 19:31 40.20519 113.41269 41304 ft 567 kts 111°
2026-04-27 19:32 40.17796 113.50956 41295 ft 567 kts 112°
2026-04-27 19:32 40.15063 113.60638 41299 ft 568 kts 112°
2026-04-27 19:33 40.12322 113.70313 41281 ft 568 kts 112°
2026-04-27 19:33 40.09568 113.80000 41281 ft 569 kts 112°
2026-04-27 19:34 40.06803 113.89685 41274 ft 569 kts 112°
2026-04-27 19:34 40.04028 113.99372 41273 ft 570 kts 112°
2026-04-27 19:35 40.01260 114.08997 41265 ft 570 kts 112°
2026-04-27 19:35 39.98467 114.18677 41266 ft 570 kts 112°
2026-04-27 19:36 39.95666 114.28344 41265 ft 570 kts 112°
2026-04-27 19:36 39.92856 114.38005 41265 ft 570 kts 112°
2026-04-27 19:37 39.90038 114.47664 41257 ft 571 kts 112°
2026-04-27 19:37 39.87207 114.57329 41256 ft 571 kts 113°
2026-04-27 19:38 39.84367 114.66990 41257 ft 572 kts 113°
2026-04-27 19:38 39.81516 114.76655 41254 ft 572 kts 113°
2026-04-27 19:39 39.78655 114.86315 41256 ft 573 kts 113°
2026-04-27 19:39 39.75785 114.95968 41253 ft 572 kts 114°
2026-04-27 19:40 39.72910 115.05608 41255 ft 572 kts 114°
2026-04-27 19:40 39.70025 115.15248 41259 ft 573 kts 114°
2026-04-27 19:41 39.67128 115.24887 41256 ft 573 kts 114°
2026-04-27 19:41 39.64226 115.34515 41255 ft 572 kts 114°
2026-04-27 19:42 39.61319 115.44124 41253 ft 572 kts 114°
2026-04-27 19:42 39.58404 115.53722 41253 ft 572 kts 114°
2026-04-27 19:43 39.55479 115.63322 41258 ft 572 kts 114°
2026-04-27 19:43 39.52550 115.72900 41255 ft 571 kts 114°
2026-04-27 19:44 39.49616 115.82459 41257 ft 571 kts 114°
2026-04-27 19:44 39.46674 115.92012 41254 ft 571 kts 114°
2026-04-27 19:45 39.43726 116.01550 41254 ft 571 kts 114°
2026-04-27 19:45 39.40769 116.11083 41259 ft 571 kts 114°
2026-04-27 19:46 39.37801 116.20621 41258 ft 572 kts 114°
2026-04-27 19:46 39.34841 116.30097 41255 ft 573 kts 115°
2026-04-27 19:47 39.31850 116.39645 41255 ft 574 kts 115°
2026-04-27 19:47 39.28845 116.49200 41258 ft 574 kts 115°
2026-04-27 19:48 39.25833 116.58744 41255 ft 575 kts 115°
2026-04-27 19:48 39.22804 116.68312 41256 ft 576 kts 115°
2026-04-27 19:49 39.19764 116.77879 41257 ft 577 kts 115°
2026-04-27 19:49 39.16713 116.87449 41257 ft 577 kts 115°
2026-04-27 19:50 39.13701 116.97048 41250 ft 579 kts 110°
2026-04-27 19:50 39.11862 117.07169 41253 ft 582 kts 101°
2026-04-27 19:51 39.10459 117.17460 41259 ft 584 kts 100°
2026-04-27 19:51 39.09130 117.27769 41253 ft 584 kts 100°
2026-04-27 19:52 39.07984 117.38113 41257 ft 584 kts 91°
2026-04-27 19:52 39.07710 117.48556 41257 ft 584 kts 90°
2026-04-27 19:53 39.07548 117.64230 41254 ft 584 kts 90°
2026-04-27 19:53 39.07440 117.74690 41261 ft 584 kts 90°
2026-04-27 19:54 39.07306 117.85138 41256 ft 584 kts 90°
2026-04-27 19:54 39.07155 117.95589 41254 ft 584 kts 90°
2026-04-27 19:55 39.06547 118.06006 41262 ft 584 kts 100°
2026-04-27 19:55 39.05067 118.16289 41250 ft 585 kts 102°
2026-04-27 19:56 39.03421 118.26528 41248 ft 585 kts 103°
2026-04-27 19:56 39.01730 118.36758 41250 ft 585 kts 104°
2026-04-27 19:57 38.99842 118.46931 41244 ft 585 kts 105°
2026-04-27 19:57 38.97889 118.57074 41247 ft 585 kts 105°
2026-04-27 19:58 38.95950 118.67239 41239 ft 586 kts 105°
2026-04-27 19:58 38.94023 118.77421 41239 ft 586 kts 105°
2026-04-27 19:59 38.92095 118.87588 41239 ft 586 kts 105°
2026-04-27 19:59 38.90170 118.97680 41228 ft 586 kts 105°
2026-04-27 20:00 38.88220 119.07846 41228 ft 586 kts 105°
2026-04-27 20:00 38.86261 119.18001 41228 ft 586 kts 105°
2026-04-27 20:01 38.84295 119.28144 41220 ft 586 kts 105°
2026-04-27 20:01 38.82319 119.38288 41219 ft 586 kts 105°
2026-04-27 20:02 38.80334 119.48426 41219 ft 586 kts 105°
2026-04-27 20:02 38.78338 119.58570 41211 ft 587 kts 105°
2026-04-27 20:03 38.76330 119.68725 41209 ft 588 kts 105°
2026-04-27 20:03 38.74310 119.78888 41210 ft 589 kts 105°
2026-04-27 20:04 38.72282 119.89043 41202 ft 589 kts 105°
2026-04-27 20:04 38.70586 119.97498 41200 ft 590 kts 105°
2026-04-27 20:05 38.68189 120.09390 41200 ft 590 kts 105°
2026-04-27 20:05 38.66132 120.19546 41195 ft 589 kts 106°
2026-04-27 20:06 38.64065 120.29695 41192 ft 589 kts 106°
2026-04-27 20:06 38.61992 120.39827 41182 ft 589 kts 106°
2026-04-27 20:07 38.59909 120.49960 41182 ft 589 kts 106°
2026-04-27 20:07 38.57818 120.60079 41182 ft 588 kts 106°
2026-04-27 20:08 38.55737 120.70111 41182 ft 587 kts 106°
2026-04-27 20:08 38.53636 120.80186 41182 ft 586 kts 106°
2026-04-27 20:09 38.51529 120.90242 41182 ft 586 kts 107°
2026-04-27 20:09 38.49415 121.00287 41175 ft 586 kts 107°
2026-04-27 20:10 38.47295 121.10314 41170 ft 585 kts 107°
2026-04-27 20:10 38.45244 121.20361 41176 ft 585 kts 104°
2026-04-27 20:11 38.43622 121.30536 41170 ft 586 kts 101°
2026-04-27 20:11 38.42093 121.40743 41172 ft 586 kts 102°
2026-04-27 20:12 38.40768 121.49201 41176 ft 586 kts 102°
2026-04-27 20:12 38.38802 121.61079 41170 ft 586 kts 103°
2026-04-27 20:13 38.37375 121.69521 41171 ft 586 kts 103°
2026-04-27 20:13 38.35656 121.79672 41173 ft 586 kts 103°
2026-04-27 20:14 38.33935 121.89833 41170 ft 587 kts 103°
2026-04-27 20:14 38.32205 122.00004 41175 ft 588 kts 103°
2026-04-27 20:15 38.30466 122.10174 41170 ft 587 kts 103°
2026-04-27 20:15 38.28720 122.20324 41170 ft 587 kts 103°
2026-04-27 20:16 38.27013 122.30484 41171 ft 587 kts 102°
2026-04-27 20:16 38.25302 122.40625 41181 ft 585 kts 111°
2026-04-27 20:17 38.23725 122.45354 41166 ft 577 kts 123°
2026-04-27 20:17 38.21519 122.49558 41165 ft 566 kts 136°
2026-04-27 20:17 38.16244 122.56898 41162 ft 561 kts 141°
2026-04-27 20:18 38.10729 122.63890 41163 ft 560 kts 142°
2026-04-27 20:18 38.05211 122.70872 41163 ft 561 kts 141°
2026-04-27 20:19 37.99746 122.77936 41163 ft 561 kts 141°
2026-04-27 20:19 37.94301 122.85006 41165 ft 561 kts 141°
2026-04-27 20:20 37.88825 122.92092 41154 ft 563 kts 141°
2026-04-27 20:20 37.83337 122.99172 41154 ft 563 kts 141°
2026-04-27 20:21 37.77846 123.06234 41136 ft 563 kts 142°
2026-04-27 20:21 37.72359 123.13278 41136 ft 562 kts 142°
2026-04-27 20:22 37.66872 123.20304 41136 ft 561 kts 142°
2026-04-27 20:22 37.61420 123.27269 41127 ft 561 kts 142°
2026-04-27 20:23 37.56078 123.34480 41133 ft 568 kts 134°
2026-04-27 20:23 37.51231 123.42357 41114 ft 570 kts 133°
2026-04-27 20:24 37.46481 123.50351 41128 ft 570 kts 132°
2026-04-27 20:24 37.41735 123.58350 41126 ft 570 kts 133°
2026-04-27 20:25 37.37052 123.66189 41125 ft 570 kts 133°
2026-04-27 20:25 37.32276 123.74142 41117 ft 570 kts 133°
2026-04-27 20:26 37.27498 123.82076 41106 ft 570 kts 133°
2026-04-27 20:26 37.22706 123.90016 41113 ft 570 kts 133°
2026-04-27 20:27 37.18570 123.98582 41107 ft 582 kts 114°
2026-04-27 20:27 37.17407 124.03445 41105 ft 585 kts 101°
2026-04-27 20:27 37.17013 124.08509 41112 ft 584 kts 89°
2026-04-27 20:28 37.17199 124.18676 41106 ft 585 kts 85°
2026-04-27 20:28 37.17581 124.27162 41095 ft 586 kts 85°
2026-04-27 20:29 37.17990 124.39086 41093 ft 586 kts 86°
2026-04-27 20:29 37.18233 124.49306 41084 ft 586 kts 87°
2026-04-27 20:30 37.18446 124.59528 41089 ft 586 kts 87°
2026-04-27 20:30 37.18659 124.69745 41044 ft 587 kts 87°
2026-04-27 20:31 37.18873 124.79964 40976 ft 587 kts 87°
2026-04-27 20:31 37.19085 124.90195 40960 ft 587 kts 87°
2026-04-27 20:32 37.19282 125.00367 40964 ft 587 kts 87°
2026-04-27 20:32 37.19468 125.10608 40953 ft 588 kts 87°
2026-04-27 20:33 37.19646 125.20843 40953 ft 587 kts 87°
2026-04-27 20:33 37.19816 125.31075 40953 ft 587 kts 87°
2026-04-27 20:34 37.19978 125.41304 40947 ft 587 kts 87°
2026-04-27 20:34 37.20134 125.51530 40943 ft 587 kts 87°
2026-04-27 20:35 37.20279 125.61761 40943 ft 587 kts 88°
2026-04-27 20:35 37.20411 125.71995 40943 ft 587 kts 88°
2026-04-27 20:36 37.20536 125.82224 40943 ft 587 kts 88°
2026-04-27 20:36 37.20657 125.92463 40943 ft 587 kts 88°
2026-04-27 20:37 37.20764 126.02705 40943 ft 587 kts 88°
2026-04-27 20:37 37.20863 126.12942 40944 ft 587 kts 88°
2026-04-27 20:38 37.20955 126.23170 40943 ft 587 kts 88°
2026-04-27 20:38 37.21038 126.33413 40942 ft 587 kts 88°
2026-04-27 20:39 37.21112 126.43645 40934 ft 587 kts 88°
2026-04-27 20:39 37.21183 126.53883 40934 ft 587 kts 88°
2026-04-27 20:40 37.21236 126.64122 40934 ft 587 kts 88°
2026-04-27 20:40 37.21279 126.74375 40934 ft 587 kts 89°
2026-04-27 20:41 37.21315 126.84609 40927 ft 587 kts 89°
2026-04-27 20:41 37.21913 126.94785 40926 ft 582 kts 73°
2026-04-27 20:42 37.23119 126.99589 40925 ft 573 kts 61°
2026-04-27 20:42 37.24982 127.03934 40926 ft 560 kts 48°
2026-04-27 20:42 37.29824 127.11442 40922 ft 551 kts 40°
2026-04-27 20:43 37.32212 127.15250 40926 ft 562 kts 49°
2026-04-27 20:43 37.34139 127.19580 40933 ft 573 kts 61°
2026-04-27 20:43 37.35395 127.24292 40934 ft 581 kts 75°
2026-04-27 20:43 37.35883 127.29337 40944 ft 585 kts 89°
2026-04-27 20:44 37.35548 127.34421 40949 ft 584 kts 101°
2026-04-27 20:44 37.34729 127.39423 40943 ft 584 kts 106°
2026-04-27 20:44 37.32530 127.49240 40942 ft 584 kts 110°
2026-04-27 20:45 37.30177 127.59006 40911 ft 584 kts 109°
2026-04-27 20:45 37.27907 127.68804 40891 ft 584 kts 108°
2026-04-27 20:46 37.25699 127.78625 40878 ft 584 kts 108°
2026-04-27 20:46 37.23498 127.88444 40874 ft 585 kts 108°
2026-04-27 20:47 37.21283 127.98266 40844 ft 585 kts 108°
2026-04-27 20:47 37.19054 128.08088 40849 ft 585 kts 109°
2026-04-27 20:48 37.17196 128.16236 40852 ft 585 kts 109°
2026-04-27 20:48 37.14571 128.27698 40835 ft 585 kts 109°
2026-04-27 20:49 37.12317 128.37497 40847 ft 585 kts 108°
2026-04-27 20:49 37.10072 128.47217 40851 ft 585 kts 109°
2026-04-27 20:50 37.07802 128.57004 40857 ft 586 kts 109°
2026-04-27 20:50 37.05520 128.66801 40861 ft 586 kts 109°
2026-04-27 20:51 37.03233 128.76579 40886 ft 585 kts 109°
2026-04-27 20:51 37.00938 128.86351 40905 ft 585 kts 109°
2026-04-27 20:52 36.98638 128.96108 40905 ft 586 kts 109°
2026-04-27 20:52 36.96320 129.05898 40909 ft 586 kts 109°
2026-04-27 20:53 36.93999 129.15661 40907 ft 586 kts 109°
2026-04-27 20:53 36.91668 129.25431 40900 ft 587 kts 109°
2026-04-27 20:54 36.88155 129.40075 40889 ft 586 kts 109°
2026-04-27 20:55 36.85804 129.49824 40887 ft 586 kts 109°
2026-04-27 20:55 36.83447 129.59563 40896 ft 586 kts 109°
2026-04-27 20:56 36.81080 129.69304 40899 ft 586 kts 109°
2026-04-27 20:56 36.78706 129.79034 40899 ft 586 kts 109°
2026-04-27 20:57 36.76340 129.88692 40894 ft 587 kts 109°
2026-04-27 20:57 36.73948 129.98419 40899 ft 587 kts 109°
2026-04-27 20:58 36.71548 130.08142 40895 ft 587 kts 110°
2026-04-27 20:58 36.69142 130.17850 40895 ft 586 kts 110°
2026-04-27 20:59 36.66731 130.27543 40901 ft 586 kts 110°
2026-04-27 20:59 36.64311 130.37230 40895 ft 586 kts 110°
2026-04-27 21:00 36.61882 130.46918 40896 ft 586 kts 110°
2026-04-27 21:00 36.59448 130.56586 40898 ft 585 kts 110°
2026-04-27 21:01 36.57008 130.66244 40902 ft 586 kts 110°
2026-04-27 21:01 36.54550 130.75933 40904 ft 588 kts 110°
2026-04-27 21:02 36.52497 130.83998 40906 ft 588 kts 110°
2026-04-27 21:02 36.50027 130.93670 40907 ft 587 kts 110°
2026-04-27 21:03 36.47545 131.03354 40906 ft 587 kts 110°
2026-04-27 21:03 36.45061 131.13003 40908 ft 586 kts 110°
2026-04-27 21:04 36.42572 131.22641 40934 ft 586 kts 111°
2026-04-27 21:04 36.40074 131.32274 40934 ft 585 kts 111°
2026-04-27 21:05 36.37766 131.41955 40936 ft 588 kts 102°
2026-04-27 21:05 36.36991 131.52041 40934 ft 587 kts 93°
2026-04-27 21:06 36.36656 131.62165 40934 ft 587 kts 91°
2026-04-27 21:06 36.36394 131.72281 40934 ft 586 kts 91°
2026-04-27 21:07 36.36098 131.82382 40934 ft 586 kts 92°
2026-04-27 21:07 36.35767 131.92494 40934 ft 586 kts 92°
2026-04-27 21:08 36.35420 132.02587 40934 ft 586 kts 92°
2026-04-27 21:08 36.35065 132.12687 40934 ft 586 kts 92°
2026-04-27 21:09 36.34703 132.22788 40934 ft 586 kts 92°
2026-04-27 21:09 36.34334 132.32887 40943 ft 586 kts 92°
2026-04-27 21:10 36.33956 132.42991 40944 ft 586 kts 92°
2026-04-27 21:10 36.33569 132.53089 40943 ft 586 kts 92°
2026-04-27 21:11 36.33177 132.63118 40943 ft 587 kts 92°
2026-04-27 21:11 36.32773 132.73224 40943 ft 586 kts 93°
2026-04-27 21:12 36.32360 132.83315 40943 ft 587 kts 93°
2026-04-27 21:12 36.31939 132.93422 40935 ft 587 kts 93°
2026-04-27 21:13 36.31509 133.03531 40934 ft 587 kts 93°
2026-04-27 21:13 36.31071 133.13639 40934 ft 588 kts 93°
2026-04-27 21:14 36.30623 133.23763 40935 ft 588 kts 94°
2026-04-27 21:15 36.29700 133.44057 40934 ft 588 kts 94°
2026-04-27 21:15 36.29227 133.54166 40942 ft 587 kts 94°
2026-04-27 21:16 36.28746 133.64272 40953 ft 588 kts 94°
2026-04-27 21:16 36.28256 133.74381 40953 ft 588 kts 94°
2026-04-27 21:17 36.27763 133.84489 40953 ft 588 kts 94°
2026-04-27 21:17 36.27257 133.94525 40944 ft 587 kts 94°
2026-04-27 21:18 36.26738 134.04619 40943 ft 587 kts 94°
2026-04-27 21:18 36.26211 134.14712 40943 ft 587 kts 94°
2026-04-27 21:19 36.25679 134.24799 40943 ft 587 kts 94°
2026-04-27 21:19 36.25139 134.34894 40943 ft 587 kts 94°
2026-04-27 21:20 36.24312 134.50025 40943 ft 587 kts 95°
2026-04-27 21:20 36.23755 134.60117 40943 ft 587 kts 95°
2026-04-27 21:21 36.23180 134.70198 40943 ft 587 kts 95°
2026-04-27 21:21 36.22596 134.80293 40943 ft 587 kts 95°
2026-04-27 21:22 36.22006 134.90386 40943 ft 587 kts 95°
2026-04-27 21:22 36.21409 135.00465 40953 ft 587 kts 95°
2026-04-27 21:23 36.20803 135.10540 40952 ft 586 kts 95°
2026-04-27 21:23 36.19853 135.20538 40954 ft 583 kts 107°
2026-04-27 21:24 36.18571 135.25255 40954 ft 575 kts 119°
2026-04-27 21:24 36.16858 135.29715 40952 ft 573 kts 122°
2026-04-27 21:24 36.13122 135.38397 40952 ft 571 kts 124°
2026-04-27 21:25 36.09291 135.46909 40861 ft 570 kts 124°
2026-04-27 21:25 36.05493 135.55399 40227 ft 561 kts 124°
2026-04-27 21:26 36.03600 135.59645 39222 ft 569 kts 124°
2026-04-27 21:26 36.01687 135.63939 38454 ft 572 kts 123°
2026-04-27 21:26 35.99775 135.68245 37786 ft 572 kts 124°
2026-04-27 21:26 35.97863 135.72549 37117 ft 571 kts 124°
2026-04-27 21:27 35.95949 135.76852 36425 ft 572 kts 124°
2026-04-27 21:27 35.94033 135.81155 35716 ft 572 kts 124°
2026-04-27 21:27 35.92118 135.85458 35000 ft 573 kts 125°
2026-04-27 21:27 35.90190 135.89777 34189 ft 576 kts 126°
2026-04-27 21:28 35.88247 135.94111 33343 ft 579 kts 126°
2026-04-27 21:28 35.86293 135.98463 32482 ft 582 kts 126°
2026-04-27 21:28 35.84327 136.02835 31590 ft 584 kts 126°
2026-04-27 21:28 35.82356 136.07225 30661 ft 587 kts 126°
2026-04-27 21:29 35.80377 136.11626 29743 ft 589 kts 126°
2026-04-27 21:29 35.78309 136.15941 28997 ft 577 kts 132°
2026-04-27 21:29 35.75798 136.19679 28305 ft 557 kts 144°
2026-04-27 21:29 35.72858 136.22617 27653 ft 533 kts 157°
2026-04-27 21:30 35.69716 136.24927 27017 ft 521 kts 161°
2026-04-27 21:30 35.66554 136.27020 26353 ft 514 kts 163°
2026-04-27 21:30 35.63398 136.29059 25672 ft 510 kts 162°
2026-04-27 21:30 35.60278 136.31104 25022 ft 505 kts 161°
2026-04-27 21:31 35.57198 136.33146 24364 ft 501 kts 161°
2026-04-27 21:31 35.54148 136.35183 23712 ft 497 kts 160°
2026-04-27 21:31 35.51135 136.37207 23065 ft 491 kts 160°
2026-04-27 21:31 35.48150 136.39207 22417 ft 486 kts 160°
2026-04-27 21:32 35.45199 136.41181 21773 ft 481 kts 160°
2026-04-27 21:32 35.42280 136.43132 21132 ft 475 kts 160°
2026-04-27 21:32 35.39404 136.45051 20496 ft 468 kts 160°
2026-04-27 21:32 35.36559 136.46939 19884 ft 460 kts 160°
2026-04-27 21:33 35.33652 136.48361 19245 ft 439 kts 175°
2026-04-27 21:33 35.30708 136.48909 18650 ft 422 kts 183°
2026-04-27 21:33 35.27808 136.49211 18052 ft 415 kts 184°
2026-04-27 21:33 35.24947 136.49486 17459 ft 409 kts 183°
2026-04-27 21:34 35.22124 136.49761 16866 ft 405 kts 183°
2026-04-27 21:34 35.19338 136.50037 16280 ft 399 kts 183°
2026-04-27 21:34 35.16588 136.50312 15704 ft 394 kts 182°
2026-04-27 21:34 35.13875 136.50584 15117 ft 389 kts 182°
2026-04-27 21:35 35.11196 136.50854 14543 ft 384 kts 182°
2026-04-27 21:35 35.08546 136.51122 13964 ft 379 kts 181°
2026-04-27 21:35 35.05927 136.51387 13388 ft 376 kts 181°
2026-04-27 21:35 35.03335 136.51651 12816 ft 373 kts 181°
2026-04-27 21:36 35.00758 136.51912 12234 ft 371 kts 181°
2026-04-27 21:36 34.98195 136.52172 11786 ft 365 kts 180°
2026-04-27 21:36 34.95766 136.52427 11656 ft 335 kts 180°
2026-04-27 21:36 34.93549 136.52668 11561 ft 305 kts 181°
2026-04-27 21:37 34.91513 136.52877 11461 ft 286 kts 181°
2026-04-27 21:37 34.89561 136.53069 11331 ft 279 kts 181°
2026-04-27 21:37 34.87630 136.53257 11213 ft 279 kts 181°
2026-04-27 21:37 34.85694 136.53445 11086 ft 279 kts 181°
2026-04-27 21:38 34.83759 136.53636 10958 ft 278 kts 181°
2026-04-27 21:38 34.81828 136.53829 10709 ft 278 kts 180°
2026-04-27 21:38 34.79911 136.54023 10386 ft 276 kts 180°
2026-04-27 21:38 34.77999 136.54217 10077 ft 275 kts 180°
2026-04-27 21:39 34.76087 136.54409 9778 ft 282 kts 179°
2026-04-27 21:39 34.74102 136.54649 9647 ft 285 kts 174°
2026-04-27 21:39 34.72273 136.55415 9403 ft 283 kts 152°
2026-04-27 21:39 34.70811 136.57007 9051 ft 284 kts 130°
2026-04-27 21:40 34.69637 136.58925 8694 ft 282 kts 127°
2026-04-27 21:40 34.68514 136.60858 8341 ft 279 kts 127°
2026-04-27 21:40 34.67397 136.62768 7978 ft 276 kts 127°
2026-04-27 21:40 34.66281 136.64659 7605 ft 274 kts 127°
2026-04-27 21:41 34.65170 136.66530 7263 ft 271 kts 127°
2026-04-27 21:41 34.64072 136.68375 6916 ft 269 kts 128°
2026-04-27 21:41 34.62979 136.70205 6555 ft 266 kts 128°
2026-04-27 21:41 34.61897 136.72014 6200 ft 263 kts 128°
2026-04-27 21:42 34.60825 136.73805 5842 ft 261 kts 128°
2026-04-27 21:42 34.59759 136.75583 5488 ft 258 kts 128°
2026-04-27 21:42 34.58719 136.77350 5136 ft 257 kts 125°
2026-04-27 21:42 34.58021 136.79318 4870 ft 253 kts 101°
2026-04-27 21:43 34.58039 136.81400 4736 ft 243 kts 82°
2026-04-27 21:43 34.58348 136.83366 4624 ft 232 kts 78°
2026-04-27 21:43 34.58956 136.85111 4525 ft 221 kts 53°
2026-04-27 21:43 34.60151 136.86224 4443 ft 219 kts 19°
2026-04-27 21:44 34.61645 136.86387 4348 ft 218 kts 351°
2026-04-27 21:44 34.63125 136.86007 4251 ft 218 kts 346°
2026-04-27 21:44 34.64606 136.85612 4039 ft 218 kts 348°
2026-04-27 21:44 34.66092 136.85249 3710 ft 219 kts 348°
2026-04-27 21:45 34.67566 136.84899 3524 ft 211 kts 348°
2026-04-27 21:45 34.68966 136.84571 3443 ft 198 kts 349°
2026-04-27 21:45 34.70292 136.84262 3198 ft 193 kts 348°
2026-04-27 21:45 34.71608 136.83945 2846 ft 192 kts 348°
2026-04-27 21:46 34.72895 136.83636 2527 ft 184 kts 349°
2026-04-27 21:46 34.74122 136.83344 2270 ft 175 kts 349°
2026-04-27 21:46 34.75276 136.83067 2033 ft 164 kts 349°
2026-04-27 21:46 34.76362 136.82808 1787 ft 155 kts 350°
2026-04-27 21:47 34.77393 136.82561 1556 ft 146 kts 350°
2026-04-27 21:47 34.78042 136.82406 1420 ft 141 kts 350°
2026-04-27 21:47 34.78979 136.82182 1222 ft 135 kts 351°
2026-04-27 21:47 34.80192 136.81892 959 ft 134 kts 351°
2026-04-27 21:48 34.80808 136.81744 824 ft 134 kts 351°
2026-04-27 21:48 34.81717 136.81526 642 ft 133 kts 351°
2026-04-27 21:48 34.82628 136.81308 440 ft 133 kts 350°
2026-04-27 21:48 34.83535 136.81090 249 ft 133 kts 350°
2026-04-27 21:49 34.84440 136.80874 60 ft 132 kts 350°
2026-04-27 21:49 34.85254 136.80678 33 ft 98 kts 349°
2026-04-27 21:49 34.85762 136.80557 31 ft 46 kts 349°
2026-04-27 21:49 34.85981 136.80505 31 ft 20 kts 349°
2026-04-27 21:50 34.86120 136.80493 33 ft 20 kts
2026-04-27 21:50 34.86251 136.80536 34 ft 17 kts 19°
2026-04-27 21:50 34.86362 136.80581 34 ft 14 kts 18°
2026-04-27 21:50 34.86436 136.80625 34 ft 11 kts 43°
2026-04-27 21:51 34.86461 136.80698 34 ft 9 kts 90°
2026-04-27 21:51 34.86419 136.80749 34 ft 10 kts 154°
2026-04-27 21:51 34.86340 136.80770 34 ft 13 kts 170°
2026-04-27 21:51 34.86237 136.80794 34 ft 16 kts 168°
2026-04-27 21:52 34.86117 136.80825 34 ft 18 kts 169°
2026-04-27 21:52 34.85997 136.80855 34 ft 18 kts 168°
2026-04-27 21:52 34.85873 136.80885 34 ft 18 kts 169°
2026-04-27 21:52 34.85749 136.80914 34 ft 19 kts 169°
2026-04-27 21:53 34.85665 136.80955 34 ft 11 kts 133°
2026-04-27 21:53 34.85660 136.81029 34 ft 10 kts 80°
2026-04-27 21:53 34.85674 136.81113 34 ft 8 kts 77°
2026-04-27 21:53 34.85684 136.81179 33 ft 6 kts 81°
2026-04-27 21:54 34.85681 136.81225 34 ft 4 kts 92°
2026-04-27 21:54 34.85696 136.81266 34 ft 7 kts 53°
2026-04-27 21:54 34.85722 136.81298 34 ft 4 kts 43°
2026-04-27 21:54 34.85739 136.81316 34 ft 2 kts 41°
2026-04-27 21:55 34.85755 136.81333 34 ft 3 kts 41°
2026-04-27 21:55 34.85760 136.81338 34 ft 0 kts 41°
2026-04-27 21:55 34.85763 136.81342 34 ft 2 kts 41°
2026-04-27 21:55 34.85772 136.81352 34 ft 0 kts 41°